Weather History for KPRX - November, 2013

Change the Weather History Date:

Monday, November 4, 2013

  Actual Average (KTXK) Record (KTXK)
Temperature  
Mean Temperature 54 °F 58 °F  
Max Temperature 57 °F 69 °F 87 °F (1922)
Min Temperature 51 °F 48 °F 22 °F (1991)
Degree Days  
Heating Degree Days 11 8  
Month to date heating degree days 29  
Since 1 July heating degree days 147  
Cooling Degree Days 0 1  
Month to date cooling degree days 4  
Year to date cooling degree days 2192  
Growing Degree Days 4 (Base 50)    
Moisture  
Dew Point 47 °F    
Average Humidity 75    
Maximum Humidity 88    
Minimum Humidity 58    
Precipitation  
Precipitation 0.34 in 0.15 in 2.39 in (1973)
Month to date precipitation 0.60  
Year to date precipitation 40.38  
Snow  
Snow 0.00 in - - ()
Month to date snowfall  
Since 1 July snowfall  
Since 1 September snowfall  
Snow Depth -    
Sea Level Pressure  
Sea Level Pressure 30.12 in    
Wind  
Wind Speed 9 mph (ESE)    
Max Wind Speed 14 mph    
Max Gust Speed 18 mph    
Visibility 10 miles    
Events      
T = Trace of Precipitation, MM = Missing Value Source: NWS Daily Summary

Daily Weather History Graph

Daily Weather History Graph

Search for Another Location

Airport or City:

Trip Planner

Search our weather history database for the weather conditions in past years. The results will help you decide how hot, cold, wet, or windy it might be!

Date:

Astronomy

Nov. 04, 2013 Rise Set
Actual Time 6:43 AM CST 5:26 PM CST
Civil Twilight 6:17 AM CST 5:52 PM CST
Nautical Twilight 5:48 AM CST 6:22 PM CST
Astronomical Twilight 5:19 AM CST 6:51 PM CST
Moon 7:52 AM CST (11/4) 6:35 PM CST (11/4)
Length of Visible Light 11h 34m
Length of Day
10h 42m
New Moon, 2% of the Moon is Illuminated
Nov 4
New Moon
Nov 9
First Quarter
Nov 17
Full
Nov 25
Last Quarter
Dec 2
New

Hourly Weather History & Observations

Time (CST) Temp. Dew Point Humidity Pressure Visibility Wind Dir Wind Speed Gust Speed Precip Events Conditions
12:15 AM 53.6 °F 39.2 °F 58% 30.05 in 10.0 mi SE 11.5 mph - N/A   Clear
12:35 AM 53.6 °F 39.2 °F 58% 30.07 in 10.0 mi SSE 9.2 mph - N/A   Clear
12:55 AM 53.6 °F 39.2 °F 58% 30.08 in 10.0 mi SE 6.9 mph - N/A   Clear
1:15 AM 53.6 °F 39.2 °F 58% 30.09 in 10.0 mi SE 4.6 mph - N/A   Clear
1:35 AM 53.6 °F 41.0 °F 62% 30.09 in 10.0 mi ESE 3.5 mph - N/A   Clear
1:55 AM 53.6 °F 41.0 °F 62% 30.10 in 10.0 mi East 4.6 mph - N/A   Partly Cloudy
2:15 AM 51.8 °F 41.0 °F 67% 30.10 in 10.0 mi East 5.8 mph - N/A   Clear
2:35 AM 51.8 °F 41.0 °F 67% 30.10 in 10.0 mi East 5.8 mph - N/A   Clear
2:55 AM 51.8 °F 41.0 °F 67% 30.10 in 10.0 mi ESE 8.1 mph - N/A   Clear
3:15 AM 51.8 °F 41.0 °F 67% 30.09 in 10.0 mi ESE 9.2 mph - N/A   Mostly Cloudy
3:35 AM 53.6 °F 41.0 °F 62% 30.09 in 10.0 mi ESE 9.2 mph - N/A   Overcast
3:55 AM 53.6 °F 41.0 °F 62% 30.08 in 10.0 mi ESE 10.4 mph - N/A   Overcast
4:15 AM 53.6 °F 41.0 °F 62% 30.07 in 10.0 mi SE 11.5 mph - N/A   Overcast
4:35 AM 53.6 °F 41.0 °F 62% 30.08 in 10.0 mi ESE 9.2 mph - N/A   Overcast
4:55 AM 53.6 °F 41.0 °F 62% 30.08 in 10.0 mi SE 11.5 mph - N/A   Overcast
5:15 AM 53.6 °F 41.0 °F 62% 30.09 in 10.0 mi ESE 10.4 mph - N/A   Overcast
5:35 AM 53.6 °F 41.0 °F 62% 30.08 in 10.0 mi SE 13.8 mph - N/A   Overcast
5:55 AM 51.8 °F 41.0 °F 67% 30.08 in 10.0 mi SE 11.5 mph - N/A   Overcast
6:15 AM 51.8 °F 41.0 °F 67% 30.08 in 10.0 mi SE 11.5 mph - N/A   Scattered Clouds
6:35 AM 51.8 °F 42.8 °F 71% 30.09 in 10.0 mi SE 11.5 mph - N/A   Mostly Cloudy
6:55 AM 51.8 °F 42.8 °F 71% 30.10 in 10.0 mi SE 11.5 mph - N/A   Mostly Cloudy
7:15 AM 53.6 °F 42.8 °F 67% 30.11 in 10.0 mi SSE 8.1 mph - N/A   Mostly Cloudy
7:35 AM 53.6 °F 42.8 °F 67% 30.10 in 10.0 mi SE 12.7 mph - N/A   Partly Cloudy
7:55 AM 51.8 °F 42.8 °F 71% 30.10 in 10.0 mi SE 11.5 mph - N/A   Scattered Clouds
8:15 AM 53.6 °F 42.8 °F 67% 30.12 in 10.0 mi SE 10.4 mph - N/A   Mostly Cloudy
8:35 AM 53.6 °F 42.8 °F 67% 30.13 in 10.0 mi SE 11.5 mph - N/A   Overcast
8:55 AM 53.6 °F 44.6 °F 72% 30.15 in 10.0 mi SE 10.4 mph - N/A   Overcast
9:15 AM 53.6 °F 44.6 °F 72% 30.15 in 10.0 mi SSE 9.2 mph - N/A   Overcast
9:35 AM 53.6 °F 44.6 °F 72% 30.15 in 10.0 mi SE 6.9 mph - N/A   Mostly Cloudy
9:55 AM 53.6 °F 44.6 °F 72% 30.16 in 10.0 mi SE 10.4 mph - N/A   Mostly Cloudy
10:15 AM 55.4 °F 44.6 °F 67% 30.16 in 10.0 mi SSE 8.1 mph - N/A   Overcast
10:35 AM 55.4 °F 46.4 °F 72% 30.15 in 10.0 mi SSE 13.8 mph 18.4 mph N/A   Overcast
10:55 AM 53.6 °F 46.4 °F 77% 30.15 in 10.0 mi SSE 11.5 mph - N/A   Mostly Cloudy
11:15 AM 53.6 °F 46.4 °F 77% 30.15 in 10.0 mi SSE 12.7 mph 17.3 mph N/A   Mostly Cloudy
11:35 AM 55.4 °F 48.2 °F 77% 30.15 in 10.0 mi SSE 12.7 mph - N/A   Overcast
11:55 AM 55.4 °F 48.2 °F 77% 30.14 in 10.0 mi SSE 10.4 mph - N/A   Overcast
12:15 PM 55.4 °F 48.2 °F 77% 30.13 in 10.0 mi SSE 12.7 mph - N/A   Overcast
12:35 PM 55.4 °F 48.2 °F 77% 30.12 in 10.0 mi SSE 9.2 mph - 0.03 in   Mostly Cloudy
12:55 PM 55.4 °F 48.2 °F 77% 30.11 in 10.0 mi SE 9.2 mph - 0.04 in   Overcast
1:15 PM 55.4 °F 48.2 °F 77% 30.11 in 10.0 mi SE 9.2 mph - 0.01 in   Overcast
1:35 PM 55.4 °F 50.0 °F 82% 30.10 in 10.0 mi SE 11.5 mph - 0.03 in   Overcast
1:55 PM 55.4 °F 50.0 °F 82% 30.10 in 10.0 mi SE 11.5 mph - 0.03 in   Overcast
2:15 PM 55.4 °F 50.0 °F 82% 30.09 in 10.0 mi SE 10.4 mph - 0.01 in   Overcast
2:35 PM 55.4 °F 51.8 °F 88% 30.10 in 10.0 mi SE 11.5 mph - 0.01 in   Overcast
2:55 PM 57.2 °F 51.8 °F 82% 30.10 in 10.0 mi SE 9.2 mph - 0.02 in   Overcast
3:15 PM 55.4 °F 51.8 °F 88% 30.10 in 10.0 mi SE 12.7 mph - N/A   Mostly Cloudy
3:35 PM 55.4 °F 51.8 °F 88% 30.10 in 10.0 mi SE 12.7 mph - N/A   Mostly Cloudy
3:55 PM 55.4 °F 50.0 °F 82% 30.09 in 10.0 mi ESE 10.4 mph - N/A   Mostly Cloudy
4:15 PM 55.4 °F 50.0 °F 82% 30.10 in 10.0 mi ESE 6.9 mph - 0.01 in   Overcast
4:35 PM 55.4 °F 50.0 °F 82% 30.10 in 10.0 mi East 6.9 mph - 0.02 in   Mostly Cloudy
4:55 PM 55.4 °F 50.0 °F 82% 30.10 in 10.0 mi East 8.1 mph - 0.02 in   Mostly Cloudy
5:15 PM 55.4 °F 50.0 °F 82% 30.10 in 10.0 mi East 8.1 mph - 0.01 in   Mostly Cloudy
5:35 PM 55.4 °F 50.0 °F 82% 30.11 in 10.0 mi East 8.1 mph - 0.02 in   Mostly Cloudy
5:55 PM 55.4 °F 50.0 °F 82% 30.12 in 10.0 mi ESE 8.1 mph - 0.03 in   Mostly Cloudy
6:15 PM 55.4 °F 50.0 °F 82% 30.12 in 10.0 mi East 8.1 mph - N/A   Mostly Cloudy
6:35 PM 55.4 °F 50.0 °F 82% 30.13 in 10.0 mi East 8.1 mph - N/A   Mostly Cloudy
6:55 PM 55.4 °F 51.8 °F 88% 30.14 in 6.0 mi East 5.8 mph - 0.03 in   Overcast
7:15 PM 55.4 °F 50.0 °F 82% 30.14 in 7.0 mi East 8.1 mph - 0.03 in   Overcast
7:35 PM 55.4 °F 50.0 °F 82% 30.14 in 9.0 mi East 8.1 mph - 0.05 in   Overcast
7:55 PM 55.4 °F 50.0 °F 82% 30.14 in 9.0 mi East 9.2 mph - 0.07 in   Overcast
8:15 PM 55.4 °F 50.0 °F 82% 30.15 in 6.0 mi East 5.8 mph - 0.02 in   Overcast
8:35 PM 55.4 °F 51.8 °F 88% 30.15 in 7.0 mi East 9.2 mph - 0.04 in   Overcast
8:55 PM 55.4 °F 50.0 °F 82% 30.15 in 8.0 mi East 8.1 mph - 0.05 in   Overcast
9:15 PM 55.4 °F 51.8 °F 88% 30.15 in 10.0 mi East 8.1 mph - N/A   Overcast
9:35 PM 55.4 °F 51.8 °F 88% 30.15 in 10.0 mi East 9.2 mph - N/A   Overcast
9:55 PM 55.4 °F 51.8 °F 88% 30.15 in 10.0 mi East 8.1 mph - N/A   Overcast
10:15 PM 55.4 °F 51.8 °F 88% 30.15 in 10.0 mi East 10.4 mph - 0.02 in   Overcast
10:35 PM 55.4 °F 51.8 °F 88% 30.15 in 10.0 mi East 10.4 mph - 0.02 in   Mostly Cloudy
10:55 PM 55.4 °F 51.8 °F 88% 30.14 in 9.0 mi East 10.4 mph - 0.02 in   Mostly Cloudy
11:15 PM 57.2 °F 51.8 °F 82% 30.14 in 10.0 mi ESE 9.2 mph - N/A   Overcast
11:35 PM 57.2 °F 51.8 °F 82% 30.14 in 9.0 mi ESE 10.4 mph - 0.01 in   Overcast
11:55 PM 57.2 °F 51.8 °F 82% 30.14 in 8.0 mi ESE 11.5 mph - 0.03 in   Overcast